Bradshaw AFB, HI

5:39 AM HST on October 19, 2019 (GMT -1000)
Bradshaw Army Air Field

Weather History for PHSF - September, 2019

Change the Weather History Date:

Saturday, September 21, 2019

  Actual Average Record
Temperature  
Mean Temperature 62 °F -  
Max Temperature 71 °F 69 °F 73 °F (2004)
Min Temperature 51 °F 49 °F 44 °F (2016)
Degree Days  
Heating Degree Days 4    
Growing Degree Days 12 (Base 50)    
Moisture  
Dew Point 56 °F    
Average Humidity 81    
Maximum Humidity 100    
Minimum Humidity 60    
Precipitation  
Precipitation 0.00 in - - ()
Sea Level Pressure  
Sea Level Pressure 29.94 in    
Wind  
Wind Speed 9 mph (NNW)    
Max Wind Speed 21 mph    
Max Gust Speed 30 mph    
Visibility 10 miles    
Events Rain    
Averages and records for this station are not official NWS values.
T = Trace of Precipitation, MM = Missing Value Source: NWS Daily Summary

Daily Weather History Graph

Daily Weather History Graph

Search for Another Location

Airport or City:

Astronomy

Sep. 21, 2019 Rise Set
Actual Time 6:10 AM HST 6:19 PM HST
Civil Twilight 5:48 AM HST 6:41 PM HST
Nautical Twilight 5:23 AM HST 7:06 PM HST
Astronomical Twilight 4:57 AM HST 7:32 PM HST
Moon 11:57 PM HST (9/21) 12:38 PM HST (9/21)
Length of Visible Light 12h 52m
Length of Day
12h 08m
Waning Gibbous, 52% of the Moon is Illuminated
Sep 21
Waning Gibbous
Sep 21
Last Quarter
Sep 28
New
Oct 5
First Quarter
Oct 13
Full

Hourly Weather History & Observations

Time (HST) Temp. Dew Point Humidity Pressure Visibility Wind Dir Wind Speed Gust Speed Precip Events Conditions
12:58 AM 53.8 °F 51.4 °F 92% 29.91 in 10.0 mi SE 6.9 mph - N/A   Mostly Cloudy
1:58 AM 54.3 °F 52.9 °F 95% 29.89 in 10.0 mi South 8.1 mph - N/A   Mostly Cloudy
2:58 AM 54.7 °F 50.9 °F 87% 29.91 in 10.0 mi SSE 6.9 mph - N/A   Scattered Clouds
3:58 AM 55.0 °F 52.5 °F 91% 29.91 in 10.0 mi SE 5.8 mph - N/A   Overcast
4:58 AM 53.8 °F 50.7 °F 89% 29.93 in 10.0 mi SSE 5.8 mph - N/A   Partly Cloudy
5:58 AM 52.5 °F 49.6 °F 90% 29.95 in 10.0 mi Calm Calm - N/A   Scattered Clouds
6:58 AM 54.5 °F 52.0 °F 91% 29.95 in 9.0 mi South 3.5 mph - N/A   Partly Cloudy
7:58 AM 57.7 °F 54.5 °F 89% 29.98 in 10.0 mi South 9.2 mph - N/A   Overcast
8:58 AM 63.5 °F 55.8 °F 76% 29.96 in 10.0 mi South 4.6 mph - N/A   Partly Cloudy
9:58 AM 67.6 °F 55.9 °F 66% 29.94 in 10.0 mi South 20.7 mph 26.5 mph N/A   Clear
10:58 AM 70.7 °F 56.7 °F 61% 29.91 in 10.0 mi South 18.4 mph 24.2 mph N/A   Clear
11:58 AM 71.1 °F 59.4 °F 66% 29.91 in 10.0 mi NE 13.8 mph 20.7 mph N/A   Partly Cloudy
11:59 AM 69.8 °F 59.0 °F 68% 29.89 in 10.0 mi North 19.6 mph 29.9 mph N/A   Partly Cloudy
12:14 PM 69.8 °F 59.0 °F 68% 29.92 in 10.0 mi NNW 15.0 mph 26.5 mph N/A   Mostly Cloudy
12:17 PM 68.0 °F 59.0 °F 73% 29.94 in 10.0 mi NNW 16.1 mph - N/A   Mostly Cloudy
12:22 PM 68.0 °F 59.0 °F 73% 29.94 in 10.0 mi NNW 15.0 mph - N/A   Mostly Cloudy
12:27 PM 68.0 °F 59.0 °F 73% 29.92 in 10.0 mi NNW 18.4 mph 24.2 mph N/A   Mostly Cloudy
12:32 PM 68.0 °F 59.0 °F 73% 29.91 in 10.0 mi NNW 18.4 mph 24.2 mph N/A   Mostly Cloudy
12:58 PM 71.2 °F 56.5 °F 60% 29.90 in 10.0 mi SSW 10.4 mph 23.0 mph N/A   Mostly Cloudy
1:58 PM 67.3 °F 56.3 °F 68% 29.90 in 10.0 mi South 11.5 mph - N/A   Partly Cloudy
2:58 PM 66.6 °F 57.0 °F 71% 29.90 in 10.0 mi NW 8.1 mph - N/A   Mostly Cloudy
3:03 PM 66.2 °F 57.2 °F 73% 29.90 in 10.0 mi NNW 15.0 mph 19.6 mph N/A   Mostly Cloudy
3:05 PM 66.2 °F 57.2 °F 73% 29.90 in 10.0 mi WNW 12.7 mph 19.6 mph N/A   Mostly Cloudy
3:15 PM 66.2 °F 59.0 °F 78% 29.90 in 9.0 mi NW 11.5 mph - N/A Rain Light Rain
3:24 PM 64.4 °F 59.0 °F 83% 29.90 in 9.0 mi NNW 10.4 mph - N/A   Mostly Cloudy
3:31 PM 64.4 °F 59.0 °F 83% 29.90 in 9.0 mi NNW 10.4 mph - N/A Rain Light Rain
3:46 PM 64.4 °F 60.8 °F 88% 29.91 in 7.0 mi NNW 13.8 mph - N/A Rain Light Rain
3:51 PM 64.4 °F 60.8 °F 88% 29.91 in 7.0 mi NNW 12.7 mph - N/A Rain Light Rain
3:58 PM 64.0 °F 59.9 °F 86% 29.91 in 8.0 mi North 11.5 mph - 0.00 in Rain Light Rain
4:08 PM 64.4 °F 59.0 °F 83% 29.91 in 8.0 mi North 11.5 mph - N/A   Mostly Cloudy
4:18 PM 64.4 °F 59.0 °F 83% 29.91 in 10.0 mi North 9.2 mph - N/A   Mostly Cloudy
4:23 PM 64.4 °F 59.0 °F 83% 29.93 in 10.0 mi North 10.4 mph - N/A   Mostly Cloudy
4:53 PM 62.6 °F 59.0 °F 88% 29.94 in 10.0 mi North 6.9 mph - N/A   Mostly Cloudy
4:58 PM 62.8 °F 59.0 °F 87% 29.95 in 10.0 mi NNW 6.9 mph - 0.00 in   Mostly Cloudy
5:23 PM 62.6 °F 59.0 °F 88% 29.95 in 10.0 mi NW 5.8 mph - N/A   Overcast
5:33 PM 60.8 °F 59.0 °F 94% 29.97 in 10.0 mi NW 5.8 mph - N/A   Overcast
5:38 PM 60.8 °F 59.0 °F 94% 29.97 in 10.0 mi NNW 5.8 mph - N/A   Overcast
5:53 PM 60.8 °F 59.0 °F 94% 29.97 in 10.0 mi North 4.6 mph - N/A   Mostly Cloudy
5:58 PM 61.3 °F 58.6 °F 91% 29.97 in 9.0 mi North 4.6 mph - N/A   Mostly Cloudy
6:58 PM 57.2 °F 57.2 °F 100% 29.99 in 10.0 mi Calm Calm - N/A   Clear
7:58 PM 57.6 °F 51.1 °F 79% 30.00 in 10.0 mi SE 8.1 mph - 0.00 in   Clear
8:58 PM 59.0 °F 48.2 °F 67% 29.99 in 10.0 mi South 4.6 mph - N/A   Scattered Clouds
9:58 PM 56.1 °F 49.8 °F 79% 30.00 in 10.0 mi North 6.9 mph - N/A   Clear
10:58 PM 55.0 °F 47.5 °F 76% 30.00 in 10.0 mi Calm Calm - N/A   Clear
11:58 PM 51.6 °F 48.6 °F 89% 30.03 in 10.0 mi SE 3.5 mph - N/A   Scattered Clouds